This demonstration page uses our WeatherBlox Daily Observations layout. Learn more.

Left ArrowRight Arrow

Hourly Observations for July 12, 2017

Temp ( °F °C ) Dew Point ( °F °C ) Humidity (%) Winds ( mph kmh ) Pressure ( in mb ) Visibility ( mi km ) Precip ( " mm )
12:53 am 00:53 Clear with Mist and Fog 74 23.3 73 22.8 97 97 VRB 3 6 30.02 1017 5 8 N/A
1:53 am 01:53 Clear with Mist and Fog 72 22.2 72 22.2 100 100 E 3 6 30.04 1017 3 5 N/A
2:18 am 02:18 Clear with Mist and Fog 71 21.7 71 21.7 100 100 N N/A 30.06 1018 2 3 N/A
2:23 am 02:23 Clear with Mist and Fog 70 21.1 70 21.1 100 100 N N/A 30.06 1018 2 2 N/A
2:51 am 02:51 Clear with Mist and Fog 72 22 72 22 100 100 N N/A 30.06 1018 3 5 N/A
2:53 am 02:53 Clear with Mist and Fog 71 21.7 71 21.7 100 100 N N/A 30.04 1017 3 5 N/A
3:03 am 03:03 Clear with Mist and Fog 71 21.7 71 21.7 100 100 N N/A 30.03 1017 3 4 N/A
3:13 am 03:13 Clear with Mist and Fog 72 22.2 72 22.2 100 100 SSE 3 6 30.03 1017 3 5 N/A
3:53 am 03:53 Clear with Mist and Fog 71 21.7 71 21.7 100 100 N N/A 30.01 1016 3 4 N/A
4:10 am 04:10 Clear with Mist and Fog 69 20.6 69 20.6 100 100 N N/A 30.03 1017 2 2 N/A
4:16 am 04:16 Mostly Cloudy with Fog 69 20.6 69 20.6 100 100 N N/A 30.03 1017 1 1 N/A
4:50 am 04:50 Clear with Mist and Fog 68 20 68 20 100 100 N N/A 30.03 1017 1 2 N/A
4:53 am 04:53 Clear with Mist and Fog 68 20 68 20 100 100 ESE 3 6 30.02 1017 2 3 N/A
5:01 am 05:01 Clear with Mist and Fog 69 20.6 69 20.6 100 100 N N/A 30.03 1017 3 4 N/A
5:39 am 05:39 Clear with Mist and Fog 69 20.6 69 20.6 100 100 N N/A 30.06 1018 2 2 N/A
5:53 am 05:53 Clear with Mist and Fog 69 20.6 69 20.6 100 100 N N/A 30.04 1017 2 2 N/A
6:10 am 06:10 Clear with Mist and Fog 69 20.6 69 20.6 100 100 N N/A 30.06 1018 2 3 N/A
6:22 am 06:22 Sunny with Mist and Fog 69 20.6 69 20.6 100 100 N N/A 30.06 1018 4 6 N/A
6:47 am 06:47 Sunny with Mist and Fog 70 21 70 21 100 100 N N/A 30.06 1018 2 3 N/A
6:53 am 06:53 Sunny with Mist and Fog 69 20.6 69 20.6 100 100 SE 3 6 30.05 1018 2 2 N/A
7:03 am 07:03 Sunny with Mist and Fog 69 20.6 69 20.6 100 100 N N/A 30.06 1018 2 3 N/A
7:13 am 07:13 Sunny with Mist and Fog 69 20.6 69 20.6 100 100 N N/A 30.06 1018 3 4 N/A
7:39 am 07:39 Sunny with Mist and Fog 71 21.7 71 21.7 100 100 N N/A 30.06 1018 4 6 N/A
7:53 am 07:53 Sunny with Mist and Fog 73 22.8 72 22.2 96 96 N N/A 30.06 1018 4 6 N/A
8:53 am 08:53 Sunny 77 25 72 22.2 85 85 N N/A 30.07 1018 8 13 N/A
9:53 am 09:53 Sunny 80 26.7 73 22.8 79 79 SSW 3 6 30.07 1018 8 13 N/A
10:53 am 10:53 Sunny 82 27.8 74 23.3 77 77 N N/A 30.08 1019 10 16 N/A
11:53 am 11:53 Sunny 83 28.3 72 22.2 70 70 SW 7 11 30.07 1018 10 16 N/A
12:53 pm 12:53 Sunny 88 31.1 73 22.8 61 61 SW 9 15 30.06 1018 10 16 N/A
1:53 pm 13:53 Mostly Sunny 88 31.1 73 22.8 61 61 SW 6 9 30.06 1018 10 16 N/A
2:53 pm 14:53 Partly Cloudy 89 31.7 74 23.3 61 61 SW 10 17 30.04 1017 10 16 N/A
3:53 pm 15:53 Partly Cloudy 88 31.1 73 22.8 61 61 SW 5 7 30.04 1017 9 14 N/A
4:53 pm 16:53 Sunny 90 32.2 74 23.3 59 59 SSW 8 13 30.02 1017 10 16 N/A
5:53 pm 17:53 Sunny 90 32.2 73 22.8 58 58 SW 10 17 30.01 1016 10 16 N/A
6:53 pm 18:53 Sunny 86 30 73 22.8 65 65 SW 8 13 29.99 1016 10 16 N/A
7:53 pm 19:53 Sunny 85 29.4 73 22.8 68 68 SSW 5 7 29.97 1015 10 16 N/A
8:53 pm 20:53 Sunny 84 28.9 75 23.9 74 74 SSW 5 7 29.97 1015 10 16 N/A
9:53 pm 21:53 Clear 83 28.3 75 23.9 77 77 WSW 6 9 30.01 1016 10 16 N/A
10:53 pm 22:53 Clear 82 27.8 74 23.3 77 77 SW 5 7 30.02 1017 10 16 N/A
11:53 pm 23:53 Clear 78 25.6 72 22.2 82 82 N N/A 30.02 1017 10 16 N/A

Powered by AerisWeather